Tracking 18843 objects as of 20-November-2017
HD Live streaming from Space Station
objects crossing your sky now

FENGYUN 1C DEB

Track FENGYUN 1C DEB now!
10-day predictions


NORAD ID: 30336
Int'l Code: 1999-025AAX
Perigee: 813.1 km
Apogee: 879.5 km
Inclination: 98.9 °
Period: 101.7 minutes
Semi major axis: 7217 km
RCS: 0.026 m2 (small)
Launch date: May 10, 1999
Source: People's Republic of China (PRC)
Launch site: Taiyaun Space Center, China (TSC)

Note: This is SATELLITE DEBRIS
aabbcc
Your satellite tracking list
Your tracking list is empty




NASA's NSSDC Master Catalog

Two Line Element Set (TLE):
1 30336U 99025AAX 17324.58552010 +.00000186 +00000-0 +11617-3 0  9997
2 30336 098.9190 348.9209 0046008 153.3617 328.5020 14.15929429559108
Source of the keplerian elements: AFSPC